New Philadelphia, OH

7:08 PM EST on November 22, 2019 (GMT -0500)
Clever

Weather History for KPHD - October, 2019

Change the Weather History Date:

Sunday, October 20, 2019

  Actual Average Record
Temperature  
Mean Temperature 58 °F 51 °F  
Max Temperature 73 °F 63 °F 79 °F (1963)
Min Temperature 43 °F 39 °F 22 °F (1972)
Degree Days  
Heating Degree Days 7 14  
Month to date heating degree days 163 221  
Since 1 July heating degree days 172 327  
Cooling Degree Days 0 0  
Month to date cooling degree days 38 9  
Year to date cooling degree days 962 697  
Growing Degree Days 8 (Base 50)    
Moisture  
Dew Point 46 °F    
Average Humidity 76    
Maximum Humidity 93    
Minimum Humidity 40    
Precipitation  
Precipitation 0.00 in 0.09 in 1.97 in (2016)
Month to date precipitation 2.07 1.78  
Year to date precipitation 35.23 31.99  
Sea Level Pressure  
Sea Level Pressure 29.91 in    
Wind  
Wind Speed 1 mph ()    
Max Wind Speed 7 mph    
Max Gust Speed 10 mph    
Visibility 9.7 miles    
Events      
T = Trace of Precipitation, MM = Missing Value Source: Averaged Metar Reports

Daily Weather History Graph

Daily Weather History Graph

Search for Another Location

Airport or City:

Astronomy

Oct. 20, 2019 Rise Set
Actual Time 7:41 AM EDT 6:38 PM EDT
Civil Twilight 7:14 AM EDT 7:06 PM EDT
Nautical Twilight 6:42 AM EDT 7:37 PM EDT
Astronomical Twilight 6:10 AM EDT 8:09 PM EDT
Moon 11:45 PM EDT (10/20) 2:09 PM EDT (10/20)
Length of Visible Light 11h 52m
Length of Day
10h 56m
Waning Gibbous, 59% of the Moon is Illuminated
Oct 20
Waning Gibbous
Oct 21
Last Quarter
Oct 27
New
Nov 4
First Quarter
Nov 12
Full

Hourly Weather History & Observations

Time (EDT) Temp. Dew Point Humidity Pressure Visibility Wind Dir Wind Speed Gust Speed Precip Events Conditions
12:53 AM 44.1 °F 41.0 °F 89% 29.88 in 10.0 mi Calm Calm - N/A   Clear
1:53 AM 44.1 °F 41.0 °F 89% 29.87 in 9.0 mi Calm Calm - N/A   Clear
2:53 AM 44.1 °F 42.1 °F 93% 29.87 in 8.0 mi Calm Calm - N/A   Clear
3:53 AM 44.1 °F 42.1 °F 93% 29.86 in 9.0 mi Calm Calm - N/A   Clear
4:53 AM 44.1 °F 42.1 °F 93% 29.86 in 8.0 mi Calm Calm - N/A   Clear
5:53 AM 45.0 °F 43.0 °F 93% 29.87 in 10.0 mi Calm Calm - N/A   Clear
6:53 AM 45.0 °F 43.0 °F 93% 29.88 in 9.0 mi Calm Calm - N/A   Clear
7:53 AM 46.0 °F 43.0 °F 89% 29.89 in 10.0 mi Calm Calm - N/A   Clear
8:53 AM 46.9 °F 44.1 °F 90% 29.91 in 10.0 mi Calm Calm - N/A   Clear
9:53 AM 50.0 °F 46.0 °F 86% 29.92 in 10.0 mi ESE 4.6 mph - N/A   Clear
10:53 AM 54.0 °F 46.9 °F 77% 29.92 in 10.0 mi SE 5.8 mph - N/A   Clear
11:53 AM 57.9 °F 48.9 °F 72% 29.93 in 10.0 mi SE 5.8 mph - N/A   Clear
12:53 PM 64.0 °F 50.0 °F 60% 29.91 in 10.0 mi SSE 3.5 mph - N/A   Clear
1:53 PM 66.9 °F 46.9 °F 49% 29.90 in 10.0 mi ESE 4.6 mph - N/A   Clear
2:53 PM 71.1 °F 46.0 °F 41% 29.89 in 10.0 mi Calm Calm - N/A   Clear
3:53 PM 72.0 °F 46.0 °F 40% 29.90 in 10.0 mi NW 3.5 mph - N/A   Clear
4:53 PM 71.1 °F 46.9 °F 42% 29.90 in 10.0 mi Calm Calm - N/A   Clear
5:53 PM 70.0 °F 48.0 °F 46% 29.90 in 10.0 mi Calm Calm - N/A   Clear
6:53 PM 61.0 °F 50.0 °F 67% 29.92 in 10.0 mi Calm Calm - N/A   Clear
7:53 PM 57.0 °F 50.0 °F 77% 29.94 in 10.0 mi Calm Calm - N/A   Mostly Cloudy
8:53 PM 57.9 °F 52.0 °F 81% 29.96 in 10.0 mi Calm Calm - N/A   Overcast
9:53 PM 57.0 °F 51.1 °F 81% 29.97 in 10.0 mi Calm Calm - N/A   Overcast
10:53 PM 55.0 °F 51.1 °F 86% 29.99 in 10.0 mi Calm Calm - N/A   Mostly Cloudy
11:53 PM 55.9 °F 52.0 °F 87% 30.00 in 10.0 mi Calm Calm - N/A   Overcast